When you browse on this site, cookies collect data to enhance your experience and personalize the content and advertising you see.
Visit our Privacy Policy to learn more. By continuing to use the site, you agree to this use of cookies and data.
  • In Hungary
  • List of Countries
  • For 7 days
  • Water Temperature
  • Satellite Maps
  • Weather Map
  • News
  • Weather Widgets
  • user-avatar
    Login

    Hourly Weather Zaborovka

    Today, 16 January, Wednesday

    Time Temperature Precipitation Wind Pressure Humidity
    00:00 -9°C° 0 mm 3 mps 721 mmHg 92%
    01:00 -9°C° 0 mm 3 mps 721 mmHg 92%
    02:00 -9°C° 0 mm 3 mps 721 mmHg 92%
    03:00 -9°C° 0 mm 3 mps 721 mmHg 92%
    04:00 -9°C° 0 mm 3 mps 721 mmHg 93%
    05:00 -9°C° 0 mm 3 mps 721 mmHg 93%
    06:00 -9°C° 0.1 mm 3 mps 722 mmHg 94%
    07:00 -9°C° 0.1 mm 3 mps 722 mmHg 94%
    08:00 -9°C° 0 mm 3 mps 722 mmHg 94%
    09:00 -9°C° 0.1 mm 3 mps 722 mmHg 94%
    10:00 -8°C° 0.1 mm 3 mps 723 mmHg 93%
    11:00 -8°C° 0.1 mm 3 mps 723 mmHg 93%
    12:00 -7°C° 0.1 mm 3 mps 724 mmHg 92%
    13:00 -7°C° 0.1 mm 3 mps 724 mmHg 92%
    14:00 -7°C° 0.1 mm 3 mps 724 mmHg 91%
    15:00 -7°C° 0.1 mm 3 mps 725 mmHg 92%
    16:00 -7°C° 0.1 mm 3 mps 725 mmHg 93%
    17:00 -7°C° 0.1 mm 3 mps 725 mmHg 94%
    18:00 -8°C° 0.1 mm 3 mps 726 mmHg 93%
    19:00 -8°C° 0.1 mm 3 mps 726 mmHg 93%
    20:00 -8°C° 0.1 mm 3 mps 726 mmHg 93%
    21:00 -9°C° 0 mm 3 mps 727 mmHg 92%
    22:00 -9°C° 0 mm 3 mps 727 mmHg 92%
    23:00 -10°C° 0 mm 3 mps 727 mmHg 91%

    Tomorrow, 17 January, Thursday

    Time Temperature Precipitation Wind Pressure Humidity
    00:00 -10°C° 0 mm 3 mps 727 mmHg 93%
    01:00 -12°C° 0 mm 3 mps 727 mmHg 94%
    02:00 -12°C° 0 mm 3 mps 727 mmHg 96%
    03:00 -10°C° 0 mm 3 mps 726 mmHg 94%
    04:00 -10°C° 0 mm 4 mps 726 mmHg 91%
    05:00 -10°C° 0 mm 4 mps 726 mmHg 89%
    06:00 -10°C° 0.5 mm 5 mps 725 mmHg 90%
    07:00 -10°C° 0.5 mm 5 mps 724 mmHg 91%
    08:00 -9°C° 0.5 mm 6 mps 723 mmHg 92%
    09:00 -8°C° 0.6 mm 6 mps 723 mmHg 92%
    10:00 -6°C° 0.6 mm 6 mps 722 mmHg 91%
    11:00 -4°C° 0.6 mm 6 mps 722 mmHg 91%
    12:00 -4°C° 0.8 mm 6 mps 721 mmHg 91%
    13:00 -3°C° 0.8 mm 6 mps 721 mmHg 90%
    14:00 -2°C° 0.8 mm 6 mps 720 mmHg 90%
    15:00 -2°C° 0.6 mm 6 mps 720 mmHg 90%
    16:00 -2°C° 0.6 mm 6 mps 719 mmHg 89%
    17:00 -2°C° 0.6 mm 6 mps 719 mmHg 88%
    18:00 -2°C° 0.7 mm 6 mps 718 mmHg 88%
    19:00 -2°C° 0.7 mm 7 mps 718 mmHg 87%
    20:00 -2°C° 0.7 mm 7 mps 717 mmHg 86%
    21:00 -2°C° 0.2 mm 7 mps 717 mmHg 85%
    22:00 -2°C° 0.2 mm 7 mps 717 mmHg 83%
    23:00 -2°C° 0.2 mm 8 mps 717 mmHg 81%

    Day after tomorrow, 18 January, Friday

    Time Temperature Precipitation Wind Pressure Humidity
    00:00 -2°C° 0.3 mm 8 mps 718 mmHg 82%
    01:00 -2°C° 0.3 mm 8 mps 718 mmHg 83%
    02:00 -2°C° 0.3 mm 8 mps 719 mmHg 83%
    03:00 -3°C° 0.2 mm 7 mps 720 mmHg 85%
    04:00 -3°C° 0.2 mm 6 mps 721 mmHg 86%
    05:00 -4°C° 0.2 mm 5 mps 722 mmHg 87%
    06:00 -4°C° 0.1 mm 4 mps 722 mmHg 90%
    07:00 -5°C° 0.1 mm 3 mps 723 mmHg 92%
    08:00 -3°C° 0.1 mm 1 mps 723 mmHg 94%
    09:00 -2°C° 0.2 mm 1 mps 723 mmHg 95%
    10:00 -2°C° 0.2 mm 1 mps 722 mmHg 96%
    11:00 -2°C° 0.2 mm 1 mps 722 mmHg 96%
    12:00 -2°C° 1.3 mm 1 mps 722 mmHg 97%
    13:00 -4°C° 1.3 mm 2 mps 722 mmHg 97%
    14:00 -4°C° 1.3 mm 2 mps 722 mmHg 97%
    15:00 -7°C° 1.2 mm 3 mps 722 mmHg 96%
    16:00 -10°C° 1.2 mm 4 mps 723 mmHg 94%
    17:00 -12°C° 1.2 mm 5 mps 723 mmHg 93%
    18:00 -11°C° 0.2 mm 4 mps 724 mmHg 92%
    19:00 -11°C° 0.2 mm 4 mps 725 mmHg 91%
    20:00 -12°C° 0.2 mm 4 mps 726 mmHg 91%
    21:00 -12°C° 0 mm 4 mps 727 mmHg 91%
    22:00 -12°C° 0 mm 4 mps 728 mmHg 92%
    23:00 -13°C° 0 mm 3 mps 728 mmHg 93%

    19 January, Saturday

    Time Temperature Precipitation Wind Pressure Humidity
    00:00 -11°C° 0.2 mm 4 mps 728 mmHg 92%
    01:00 -11°C° 0.2 mm 5 mps 729 mmHg 90%
    02:00 -10°C° 0.2 mm 5 mps 729 mmHg 89%
    03:00 -10°C° 0.2 mm 5 mps 729 mmHg 90%
    04:00 -8°C° 0.2 mm 5 mps 729 mmHg 90%
    05:00 -8°C° 0.2 mm 4 mps 729 mmHg 91%
    06:00 -8°C° 0.3 mm 5 mps 730 mmHg 90%
    07:00 -8°C° 0.3 mm 5 mps 730 mmHg 90%
    08:00 -8°C° 0.3 mm 5 mps 731 mmHg 90%
    09:00 -8°C° 0.1 mm 5 mps 731 mmHg 89%
    10:00 -8°C° 0.1 mm 5 mps 732 mmHg 89%
    11:00 -8°C° 0.1 mm 4 mps 732 mmHg 89%
    12:00 -8°C° 0.3 mm 5 mps 733 mmHg 88%
    13:00 -8°C° 0.3 mm 5 mps 733 mmHg 88%
    14:00 -7°C° 0.3 mm 5 mps 733 mmHg 88%
    15:00 -8°C° 0.1 mm 5 mps 733 mmHg 88%
    16:00 -8°C° 0.1 mm 5 mps 733 mmHg 89%
    17:00 -8°C° 0.1 mm 4 mps 733 mmHg 89%
    18:00 -8°C° 0.1 mm 4 mps 733 mmHg 89%
    19:00 -8°C° 0.1 mm 5 mps 733 mmHg 89%
    20:00 -8°C° 0.1 mm 5 mps 733 mmHg 89%
    21:00 -8°C° 0 mm 4 mps 733 mmHg 89%
    22:00 -8°C° 0 mm 4 mps 733 mmHg 90%
    23:00 -9°C° 0 mm 4 mps 733 mmHg 91%

    20 January, Sunday

    Time Temperature Precipitation Wind Pressure Humidity
    00:00 -8°C° 0 mm 4 mps 734 mmHg 91%
    01:00 -8°C° 0 mm 4 mps 734 mmHg 92%
    02:00 -7°C° 0 mm 3 mps 734 mmHg 93%
    03:00 -8°C° 0.1 mm 3 mps 734 mmHg 93%
    04:00 -8°C° 0.1 mm 3 mps 734 mmHg 94%
    05:00 -8°C° 0.1 mm 3 mps 734 mmHg 95%
    06:00 -8°C° 0 mm 2 mps 734 mmHg 95%
    07:00 -8°C° 0 mm 2 mps 734 mmHg 96%
    08:00 -9°C° 0 mm 2 mps 735 mmHg 97%
    09:00 -9°C° 0 mm 2 mps 735 mmHg 96%
    10:00 -9°C° 0 mm 2 mps 735 mmHg 96%
    11:00 -8°C° 0 mm 2 mps 735 mmHg 96%
    12:00 -8°C° 0 mm 2 mps 735 mmHg 96%
    13:00 -8°C° 0 mm 2 mps 734 mmHg 95%
    14:00 -7°C° 0 mm 2 mps 734 mmHg 95%
    15:00 -8°C° 0.1 mm 2 mps 734 mmHg 96%
    16:00 -8°C° 0.1 mm 2 mps 734 mmHg 96%
    17:00 -8°C° 0.1 mm 2 mps 734 mmHg 96%
    18:00 -8°C° 0.2 mm 2 mps 734 mmHg 96%
    19:00 -8°C° 0.2 mm 2 mps 734 mmHg 96%
    20:00 -8°C° 0.2 mm 2 mps 734 mmHg 95%
    21:00 -8°C° 0.1 mm 2 mps 734 mmHg 96%
    22:00 -8°C° 0.1 mm 2 mps 734 mmHg 96%
    23:00 -7°C° 0.1 mm 1 mps 734 mmHg 97%

    21 January, Monday

    Time Temperature Precipitation Wind Pressure Humidity
    00:00 -7°C° 0.1 mm 1 mps 734 mmHg 97%
    01:00 -7°C° 0.1 mm 1 mps 734 mmHg 97%
    02:00 -8°C° 0.1 mm 2 mps 735 mmHg 97%
    03:00 -9°C° 0.1 mm 2 mps 735 mmHg 97%
    04:00 -9°C° 0.1 mm 2 mps 735 mmHg 97%
    05:00 -10°C° 0.1 mm 2 mps 735 mmHg 97%
    06:00 -10°C° 0.1 mm 2 mps 735 mmHg 97%
    07:00 -9°C° 0.1 mm 1 mps 735 mmHg 97%
    08:00 -10°C° 0.1 mm 1 mps 735 mmHg 97%
    09:00 -9°C° 0.1 mm 1 mps 736 mmHg 97%
    10:00 -9°C° 0.1 mm 1 mps 736 mmHg 97%
    11:00 -8°C° 0.1 mm 1 mps 736 mmHg 97%
    12:00 -8°C° 0.1 mm 1 mps 736 mmHg 96%
    13:00 -8°C° 0.1 mm 1 mps 736 mmHg 95%
    14:00 -8°C° 0.1 mm 2 mps 737 mmHg 94%
    15:00 -9°C° 0.1 mm 2 mps 737 mmHg 95%
    16:00 -9°C° 0.1 mm 2 mps 737 mmHg 95%
    17:00 -10°C° 0.1 mm 2 mps 737 mmHg 96%
    18:00 -12°C° 0.1 mm 2 mps 738 mmHg 96%
    19:00 -13°C° 0.1 mm 2 mps 738 mmHg 96%
    20:00 -14°C° 0.1 mm 2 mps 738 mmHg 96%
    21:00 -15°C° 0.1 mm 2 mps 738 mmHg 96%
    22:00 -15°C° 0.1 mm 2 mps 739 mmHg 96%
    23:00 -16°C° 0.1 mm 2 mps 739 mmHg 97%
    Show more